Content
SEND FEEDBACK

Daily
Averages
Monthly
Summary
United States of America

ANN ARBOR, MICHIGAN


Home > North America > United States > Michigan
Elevation: 759 feet     Latitude: 42 17N     Longitude: 083 43W

WEATHER
 
SELECT A DAY
Number of Records: 203,130;   Date Range: 1/1/95 - 7/20/14
 
SHARE

PRINT THIS DATA

[ ← Previous Day ]
WEATHER ALMANAC - JANUARY 1, 2013
[ Next Day → ]
[ °C ]   °F
Weather ElementAverageHighLow
Temperature18.6 °F27 °F (2:53 am)5 °F (7:53 pm)
Dewpoint9.2 °F18 °F (2:53 am)1 °F (7:53 pm)
Humidity68 %92 % (11:34 pm)50 % (1:53 pm)
Barometer30.11 in30.17 in (9:53 am)30.05 in (2:53 am)
Wind Speed5.5 mph11.5 mph (4:53 am)
Weather ElementAverage
Visibility10 mi
Wind DirectionWSW (257.5 °)

Weather ElementTotal
Precipitation---
Heating Degree Days49 (Base 65)
Averaged from 24 records on January 1, 2013
WEATHER CONDITIONS BREAKOUT
WIND DIRECTION BREAKOUT
WEATHER BY HOUR - JANUARY 1, 2013
[ °C ]   °F
Local TimeTemperatureDewpointHumidityBarometerVisibilityWind DirectionWind SpeedGust SpeedPrecipitationEventsConditions
2:53 AM27.0 °F18.0 °F69 %30.05 in10.0 miNW (320°)8.1 mphOvercast
3:53 AM26.1 °F15.1 °F63 %30.05 in10.0 miNW (320°)6.9 mphOvercast
4:53 AM25.0 °F16.0 °F69 %30.06 in10.0 miNorth (350°)11.5 mphOvercast
5:53 AM24.1 °F12.9 °F62 %30.07 in10.0 miNNW (340°)6.9 mphMostly Cloudy
6:53 AM23.0 °F12.0 °F63 %30.08 in10.0 miNorth (350°)8.1 mphOvercast
7:53 AM19.9 °F12.0 °F71 %30.10 in10.0 miNorth (360°)4.6 mphScattered Clouds
8:53 AM19.9 °F12.9 °F74 %30.14 in10.0 miNNW (330°)5.8 mphOvercast
9:53 AM21.0 °F12.0 °F68 %30.17 in10.0 miNNW (340°)4.6 mphOvercast
10:53 AM21.9 °F10.9 °F63 %30.17 in10.0 miNNW (340°)8.1 mphOvercast
11:53 AM21.9 °F9.0 °F58 %30.12 in10.0 miNNW (340°)11.5 mphOvercast
12:53 PM21.9 °F7.0 °F53 %30.12 in10.0 miNorth (350°)9.2 mphScattered Clouds
1:53 PM23.0 °F7.0 °F50 %30.11 in10.0 miNW (320°)3.5 mphOvercast
2:53 PM23.0 °F9.0 °F55 %30.11 in10.0 miWest (280°)8.1 mphOvercast
3:53 PM23.0 °F8.1 °F53 %30.11 in10.0 miWNW (290°)10.4 mphClear
4:53 PM21.9 °F7.0 °F53 %30.12 in10.0 miNW (310°)4.6 mphClear
5:53 PM19.9 °F5.0 °F52 %30.12 in10.0 miCalmClear
6:53 PM12.9 °F6.1 °F74 %30.12 in10.0 miCalmClear
7:53 PM5.0 °F1.0 °F84 %30.12 in10.0 miCalmClear
8:53 PM6.1 °F3.0 °F87 %30.13 in10.0 miWest (270°)4.6 mphOvercast
9:44 PM12.2 °F8.6 °F85 %30.08 in10.0 miWSW (250°)4.6 mphOvercast
9:53 PM12.9 °F7.0 °F77 %30.13 in10.0 miWSW (250°)3.5 mphOvercast
10:53 PM15.1 °F8.1 °F74 %30.11 in10.0 miWSW (240°)3.5 mphOvercast
11:34 PM10.4 °F8.6 °F92 %30.07 in10.0 miCalmScattered Clouds
11:53 PM8.1 °F3.9 °F83 %30.12 in10.0 miSW (230°)4.6 mphPartly Cloudy
Hourly data recorded from KARB, located miles away from Ann Arbor, Michigan







STORIES FROM OUR PARTNERS